QZS-4 (MICHIBIKI-4)

Last updated on Sept. 30, 2020, 5:50 a.m. UTC

1 42965U 17062A   20273.61676177 -.00000344  00000-0  00000-0 0  9999
2 42965  40.8300  10.2327 0748235 269.7667  90.2356  1.00278306 10902
UTC
Height (km)
Latitude
Longitude
Inclination
Orbital Period
UTC large
Height (km)
Speed (km/s)
/
Latitude / Longitude
Inclination (degrees)
Orbital Period (minutes)
Azimuth
Elevation
Range (km)
Doppler Factor
iOS Compass Heading
iOS Angle

Next 30 passes for location: Hong Kong

Rise time Rise Azimuth (degrees) Set time Set Azimuth (degrees) Duration Max altitude (degrees)

No matching passes for this satellites